Ahmedabad, India

10:44 AM IST on March 30, 2017 (GMT +0530)
Ahmedabad

Weather History for VAAH - January, 2014

Change the Weather History Date:

Thursday, January 16, 2014

  Actual Average Record
Temperature  
Mean Temperature 66 °F -  
Max Temperature 79 °F 82 °F 91 °F (2006)
Min Temperature 52 °F 56 °F 50 °F (1998)
Growing Degree Days 16 (Base 50)    
Moisture  
Dew Point 48 °F    
Average Humidity 59    
Maximum Humidity 82    
Minimum Humidity 25    
Precipitation  
Precipitation 0.00 in 0.00 in - ()
Sea Level Pressure  
Sea Level Pressure 30.01 in    
Wind  
Wind Speed 4 mph ()    
Max Wind Speed 10 mph    
Max Gust Speed -    
Visibility 2.4 miles    
Events      
Averages and records for this station are not official NWS values.
T = Trace of Precipitation, MM = Missing Value Source: Averaged Metar Reports

Daily Weather History Graph

Daily Weather History Graph

Search for Another Location

Airport or City:

Trip Planner

Search our weather history database for the weather conditions in past years. The results will help you decide how hot, cold, wet, or windy it might be!

Date:

Astronomy

Jan. 16, 2014 Rise Set
Actual Time 7:22 AM IST 6:15 PM IST
Civil Twilight 6:58 AM IST 6:39 PM IST
Nautical Twilight 6:31 AM IST 7:07 PM IST
Astronomical Twilight 6:03 AM IST 7:34 PM IST
Moon 6:33 PM IST (1/16) 7:07 AM IST (1/16)
Length of Visible Light 11h 41m
Length of Day
10h 53m
Full, 100% of the Moon is Illuminated
Jan 16
Full
Jan 24
Last Quarter
Jan 31
New
Feb 7
First Quarter
Feb 15
Full

Hourly Weather History & Observations

Time (IST) Temp. Dew Point Humidity Pressure Visibility Wind Dir Wind Speed Gust Speed Precip Events Conditions
12:10 AM 57.2 °F 42.8 °F 59% 30.04 in 2.5 mi NNW 3.5 mph - N/A   Smoke
12:40 AM 55.4 °F 42.8 °F 63% 30.04 in 2.5 mi Calm Calm - N/A   Smoke
1:10 AM 53.6 °F 44.6 °F 72% 30.04 in 2.5 mi NNE 3.5 mph - N/A   Smoke
1:40 AM 53.6 °F 42.8 °F 67% 30.01 in 2.5 mi NNE 3.5 mph - N/A   Haze
2:10 AM 59.0 °F 44.6 °F 59% 30.01 in 2.5 mi ENE 4.6 mph - N/A   Haze
2:30 AM 57 °F 49 °F 66% 30.04 in 2 mi Calm Calm - -   Haze
2:40 AM 59.0 °F 46.4 °F 63% 30.01 in 2.5 mi ENE 4.6 mph - N/A   Haze
3:10 AM 57.2 °F 46.4 °F 67% 30.01 in 2.5 mi NE 5.8 mph - N/A   Haze
3:40 AM 55.4 °F 46.4 °F 72% 30.01 in 2.5 mi NNE 2.3 mph - N/A   Haze
4:10 AM 51.8 °F 46.4 °F 82% 30.01 in 2.5 mi North 2.3 mph - N/A   Haze
4:40 AM 53.6 °F 46.4 °F 77% 30.01 in 2.5 mi Calm Calm - N/A   Haze
5:10 AM 51.8 °F 44.6 °F 76% 30.01 in 2.5 mi NNE 2.3 mph - N/A   Haze
5:30 AM 55 °F 50 °F 77% 30.03 in 1 mi Calm Calm - -   Haze
5:40 AM 51.8 °F 44.6 °F 76% 30.01 in 2.5 mi NNE 2.3 mph - N/A   Haze
6:10 AM 51.8 °F 44.6 °F 76% 30.04 in 2.2 mi NE 3.5 mph - N/A   Haze
7:10 AM 51.8 °F 46.4 °F 82% 30.06 in 1.2 mi NNE 3.5 mph - N/A   Mist
7:40 AM 51.8 °F 46.4 °F 82% 30.06 in 1.2 mi North 4.6 mph - N/A   Mist
8:10 AM 51.8 °F 46.4 °F 82% 30.06 in 1.1 mi NNE 4.6 mph - N/A   Mist
8:30 AM 58 °F 48 °F 62% 30.08 in 2 mi NNE 4.6 mph - -   Haze
9:40 AM 60.8 °F 44.6 °F 55% 30.09 in 1.6 mi NNE 8.1 mph - N/A   Smoke
10:40 AM 68.0 °F 48.2 °F 49% 30.09 in 2.2 mi ENE 8.1 mph - N/A   Smoke
11:30 AM 72 °F 52 °F 38% 30.08 in 2 mi NNE 6.9 mph - -  
11:40 AM 71.6 °F 50.0 °F 46% 30.06 in 2.5 mi ENE 9.2 mph - N/A   Smoke
12:10 PM 73.4 °F 50.0 °F 44% 30.04 in 2.5 mi ENE 9.2 mph - N/A   Smoke
1:10 PM 75.2 °F 50.0 °F 41% 30.01 in 3.1 mi NNE 9.2 mph - N/A   Smoke
1:40 PM 77.0 °F 46.4 °F 34% 29.98 in 3.1 mi NE 10.4 mph - N/A   Smoke
2:10 PM 77.0 °F 48.2 °F 36% 29.98 in 3.7 mi NNE 8.1 mph - N/A   Unknown
2:30 PM 78 °F 49 °F 25% 29.98 in 2 mi NNW 4.6 mph - -  
2:40 PM 78.8 °F 46.4 °F 32% 29.95 in 3.7 mi NE 9.2 mph - N/A   Unknown
3:10 PM 78.8 °F 48.2 °F 34% 29.95 in 3.7 mi NE 8.1 mph - N/A   Unknown
3:40 PM 78.8 °F 48.2 °F 34% 29.95 in 3.7 mi NE 8.1 mph - N/A   Unknown
4:10 PM 77.0 °F 50.0 °F 39% 29.95 in 3.7 mi NE 6.9 mph - N/A   Unknown
4:40 PM 77.0 °F 50.0 °F 39% 29.92 in 3.7 mi NNE 6.9 mph - N/A   Unknown
5:10 PM 77.0 °F 50.0 °F 39% 29.95 in 3.7 mi NE 6.9 mph - N/A   Unknown
5:30 PM 76 °F 50 °F 30% 29.94 in 2 mi NE 3.5 mph - -  
6:40 PM 69.8 °F 50.0 °F 49% 29.95 in 2.5 mi NE 5.8 mph - N/A   Smoke
7:10 PM 69.8 °F 50.0 °F 49% 29.95 in 2.5 mi NNE 3.5 mph - N/A   Smoke
7:40 PM 66.2 °F 50.0 °F 56% 29.98 in 2.5 mi NNE 2.3 mph - N/A   Smoke
8:10 PM 66.2 °F 51.8 °F 60% 29.98 in 2.5 mi NE 2.3 mph - N/A   Haze
8:30 PM 63 °F 54 °F 65% 30.00 in 2 mi Calm Calm - -   Haze
8:40 PM 64.4 °F 51.8 °F 64% 29.98 in 2.5 mi NNE 2.3 mph - N/A   Haze
9:10 PM 62.6 °F 53.6 °F 72% 30.01 in 2.5 mi North 2.3 mph - N/A   Haze
9:40 PM 60.8 °F 51.8 °F 72% 30.01 in 2.5 mi NE 2.3 mph - N/A   Haze
10:10 PM 60.8 °F 50.0 °F 68% 30.01 in 2.5 mi NNE 3.5 mph - N/A   Haze
10:40 PM 59.0 °F 50.0 °F 72% 30.01 in 2.2 mi Calm Calm - N/A   Haze
11:10 PM 59.0 °F 50.0 °F 72% 30.01 in 2.2 mi Calm Calm - N/A   Haze
11:30 PM 57 °F 53 °F 80% 30.01 in 1 mi Calm Calm - -   Haze
11:40 PM 59.0 °F 50.0 °F 72% 30.01 in 2.2 mi North 2.3 mph - N/A   Haze